When you browse on this site, cookies collect data to enhance your experience and personalize the content and advertising you see.
Visit our Privacy Policy to learn more. By continuing to use the site, you agree to this use of cookies and data.
  • In Latvia
  • List of Countries
  • For 7 days
  • Water Temperature
  • Weather Map
  • Weather Widgets
  • user-avatar
    Login

    Hourly Weather Bujaly

    Today, 15 October, Tuesday

    Time Temperature Precipitation Wind Pressure Humidity
    00:00 +15°C° 0 mm 2 mps 748 mmHg 75%
    01:00 +15°C° 0 mm 2 mps 748 mmHg 75%
    02:00 +15°C° 0 mm 2 mps 747 mmHg 76%
    03:00 +14°C° 0 mm 2 mps 747 mmHg 77%
    04:00 +13°C° 0 mm 3 mps 747 mmHg 78%
    05:00 +13°C° 0 mm 3 mps 746 mmHg 77%
    06:00 +13°C° 0 mm 4 mps 746 mmHg 76%
    07:00 +13°C° 0 mm 4 mps 746 mmHg 71%
    08:00 +14°C° 0 mm 4 mps 746 mmHg 66%
    09:00 +17°C° 0 mm 4 mps 746 mmHg 61%
    10:00 +19°C° 0 mm 5 mps 745 mmHg 57%
    11:00 +20°C° 0 mm 5 mps 745 mmHg 54%
    12:00 +21°C° 0 mm 5 mps 745 mmHg 52%
    13:00 +22°C° 0 mm 4 mps 745 mmHg 51%
    14:00 +21°C° 0 mm 3 mps 744 mmHg 54%
    15:00 +21°C° 0 mm 3 mps 744 mmHg 58%
    16:00 +20°C° 0 mm 3 mps 743 mmHg 61%
    17:00 +19°C° 0 mm 3 mps 743 mmHg 64%
    18:00 +18°C° 0 mm 3 mps 743 mmHg 67%
    19:00 +17°C° 0 mm 4 mps 743 mmHg 70%
    20:00 +16°C° 0 mm 3 mps 743 mmHg 72%
    21:00 +16°C° 0 mm 3 mps 743 mmHg 74%
    22:00 +14°C° 0 mm 3 mps 743 mmHg 76%
    23:00 +14°C° 0 mm 3 mps 743 mmHg 77%

    Tomorrow, 16 October, Wednesday

    Time Temperature Precipitation Wind Pressure Humidity
    00:00 +13°C° 0 mm 3 mps 743 mmHg 77%
    01:00 +13°C° 0 mm 3 mps 743 mmHg 78%
    02:00 +13°C° 0 mm 3 mps 743 mmHg 77%
    03:00 +12°C° 0 mm 3 mps 742 mmHg 77%
    04:00 +12°C° 0 mm 4 mps 742 mmHg 76%
    05:00 +13°C° 0 mm 4 mps 742 mmHg 73%
    06:00 +13°C° 0 mm 4 mps 742 mmHg 69%
    07:00 +14°C° 0 mm 5 mps 742 mmHg 66%
    08:00 +15°C° 0 mm 6 mps 743 mmHg 66%
    09:00 +16°C° 0 mm 6 mps 743 mmHg 67%
    10:00 +18°C° 0 mm 7 mps 743 mmHg 67%
    11:00 +18°C° 0 mm 7 mps 744 mmHg 66%
    12:00 +18°C° 0 mm 7 mps 744 mmHg 66%
    13:00 +18°C° 0 mm 7 mps 745 mmHg 65%
    14:00 +17°C° 0 mm 6 mps 745 mmHg 68%
    15:00 +16°C° 0 mm 6 mps 745 mmHg 71%
    16:00 +15°C° 0 mm 5 mps 745 mmHg 74%
    17:00 +14°C° 0 mm 5 mps 745 mmHg 76%
    18:00 +13°C° 0 mm 5 mps 746 mmHg 78%
    19:00 +13°C° 0 mm 4 mps 746 mmHg 80%
    20:00 +12°C° 0 mm 4 mps 747 mmHg 78%
    21:00 +12°C° 0 mm 4 mps 747 mmHg 76%
    22:00 +11°C° 0 mm 4 mps 747 mmHg 74%
    23:00 +11°C° 0 mm 4 mps 747 mmHg 77%

    Day after tomorrow, 17 October, Thursday

    Time Temperature Precipitation Wind Pressure Humidity
    00:00 +10°C° 0 mm 4 mps 748 mmHg 80%
    01:00 +10°C° 0 mm 4 mps 748 mmHg 83%
    02:00 +10°C° 0 mm 4 mps 748 mmHg 84%
    03:00 +10°C° 0 mm 4 mps 748 mmHg 85%
    04:00 +10°C° 0 mm 4 mps 748 mmHg 85%
    05:00 +10°C° 0 mm 4 mps 748 mmHg 83%
    06:00 +10°C° 0 mm 3 mps 748 mmHg 81%
    07:00 +10°C° 0 mm 3 mps 748 mmHg 79%
    08:00 +12°C° 0 mm 4 mps 748 mmHg 72%
    09:00 +14°C° 0 mm 4 mps 748 mmHg 64%
    10:00 +17°C° 0 mm 4 mps 748 mmHg 57%
    11:00 +18°C° 0 mm 4 mps 748 mmHg 54%
    12:00 +18°C° 0 mm 4 mps 748 mmHg 51%
    13:00 +19°C° 0 mm 3 mps 748 mmHg 48%
    14:00 +19°C° 0 mm 3 mps 748 mmHg 51%
    15:00 +18°C° 0 mm 2 mps 748 mmHg 55%
    16:00 +17°C° 0 mm 2 mps 748 mmHg 58%
    17:00 +16°C° 0 mm 2 mps 748 mmHg 60%
    18:00 +16°C° 0 mm 2 mps 748 mmHg 62%
    19:00 +15°C° 0 mm 2 mps 748 mmHg 64%
    20:00 +15°C° 0 mm 2 mps 748 mmHg 64%
    21:00 +14°C° 0 mm 2 mps 748 mmHg 64%
    22:00 +14°C° 0 mm 2 mps 748 mmHg 64%
    23:00 +14°C° 0 mm 2 mps 748 mmHg 64%

    18 October, Friday

    Time Temperature Precipitation Wind Pressure Humidity
    00:00 +14°C° 0 mm 2 mps 748 mmHg 64%
    01:00 +15°C° 0 mm 2 mps 748 mmHg 65%
    02:00 +14°C° 0 mm 2 mps 748 mmHg 67%
    03:00 +14°C° 0 mm 2 mps 748 mmHg 70%
    04:00 +13°C° 0 mm 2 mps 748 mmHg 73%
    05:00 +13°C° 0 mm 2 mps 748 mmHg 77%
    06:00 +12°C° 0 mm 2 mps 748 mmHg 81%
    07:00 +12°C° 0 mm 2 mps 748 mmHg 85%
    08:00 +14°C° 0 mm 2 mps 748 mmHg 79%
    09:00 +15°C° 0 mm 2 mps 748 mmHg 73%
    10:00 +17°C° 0 mm 2 mps 748 mmHg 67%
    11:00 +17°C° 0 mm 2 mps 748 mmHg 63%
    12:00 +18°C° 0 mm 2 mps 748 mmHg 59%
    13:00 +20°C° 0 mm 1 mps 748 mmHg 56%
    14:00 +20°C° 0 mm 1 mps 748 mmHg 59%
    15:00 +19°C° 0 mm 1 mps 747 mmHg 62%
    16:00 +16°C° 0 mm 0 mps 747 mmHg 65%
    17:00 +18°C° 0 mm 1 mps 747 mmHg 68%
    18:00 +16°C° 0 mm 1 mps 747 mmHg 70%
    19:00 +15°C° 0 mm 1 mps 747 mmHg 73%
    20:00 +15°C° 0 mm 1 mps 747 mmHg 75%
    21:00 +15°C° 0 mm 1 mps 748 mmHg 77%
    22:00 +15°C° 0 mm 1 mps 748 mmHg 79%
    23:00 +14°C° 0 mm 1 mps 747 mmHg 81%

    19 October, Saturday

    Time Temperature Precipitation Wind Pressure Humidity
    00:00 +14°C° 0 mm 1 mps 747 mmHg 83%
    01:00 +14°C° 0 mm 1 mps 747 mmHg 86%
    02:00 +13°C° 0 mm 1 mps 747 mmHg 86%
    03:00 +13°C° 0 mm 2 mps 747 mmHg 87%
    04:00 +13°C° 0 mm 2 mps 747 mmHg 88%
    05:00 +13°C° 0 mm 2 mps 746 mmHg 88%
    06:00 +13°C° 0 mm 2 mps 746 mmHg 88%
    07:00 +13°C° 0 mm 2 mps 746 mmHg 89%
    08:00 +14°C° 0 mm 3 mps 745 mmHg 83%
    09:00 +16°C° 0 mm 3 mps 745 mmHg 76%
    10:00 +18°C° 0 mm 4 mps 745 mmHg 70%
    11:00 +19°C° 0 mm 4 mps 745 mmHg 66%
    12:00 +20°C° 0 mm 3 mps 744 mmHg 62%
    13:00 +21°C° 0 mm 3 mps 744 mmHg 58%
    14:00 +20°C° 0 mm 3 mps 743 mmHg 61%
    15:00 +19°C° 0 mm 3 mps 743 mmHg 64%
    16:00 +19°C° 0 mm 2 mps 743 mmHg 67%
    17:00 +18°C° 0 mm 2 mps 743 mmHg 69%
    18:00 +17°C° 0 mm 2 mps 743 mmHg 71%
    19:00 +16°C° 0 mm 2 mps 743 mmHg 73%
    20:00 +16°C° 0 mm 2 mps 743 mmHg 71%
    21:00 +16°C° 0 mm 3 mps 743 mmHg 70%
    22:00 +17°C° 0 mm 3 mps 743 mmHg 68%
    23:00 +16°C° 0 mm 3 mps 743 mmHg 69%

    20 October, Sunday

    Time Temperature Precipitation Wind Pressure Humidity
    00:00 +14°C° 0 mm 3 mps 743 mmHg 70%
    01:00 +14°C° 0 mm 3 mps 743 mmHg 71%
    02:00 +13°C° 0 mm 3 mps 743 mmHg 75%
    03:00 +13°C° 0 mm 3 mps 744 mmHg 78%
    04:00 +12°C° 0 mm 3 mps 744 mmHg 82%
    05:00 +12°C° 0 mm 3 mps 744 mmHg 83%
    06:00 +13°C° 0 mm 2 mps 744 mmHg 84%
    07:00 +13°C° 0 mm 2 mps 744 mmHg 86%
    08:00 +13°C° 0 mm 3 mps 745 mmHg 80%
    09:00 +14°C° 0 mm 3 mps 745 mmHg 74%
    10:00 +17°C° 0 mm 4 mps 745 mmHg 68%
    11:00 +17°C° 0 mm 4 mps 746 mmHg 65%
    12:00 +18°C° 0 mm 3 mps 746 mmHg 63%
    13:00 +19°C° 0 mm 3 mps 746 mmHg 60%
    14:00 +18°C° 0 mm 3 mps 747 mmHg 63%
    15:00 +17°C° 0 mm 2 mps 747 mmHg 66%
    16:00 +18°C° 0 mm 1 mps 747 mmHg 70%
    17:00 +16°C° 0 mm 1 mps 747 mmHg 73%
    18:00 +15°C° 0 mm 1 mps 748 mmHg 76%
    19:00 +14°C° 0 mm 1 mps 748 mmHg 79%
    20:00 +14°C° 0 mm 1 mps 748 mmHg 81%
    21:00 +12°C° 0 mm 0 mps 749 mmHg 84%
    22:00 +12°C° 0 mm 0 mps 749 mmHg 86%
    23:00 +13°C° 0.1 mm 1 mps 749 mmHg 85%
    Show more